This demonstration page uses our WeatherBlox Daily Observations layout. Learn more.

Left ArrowRight Arrow

44.89941, -97.11507

Hourly Observations for June 3, 2021

Temp ( °F °C ) Dew Point ( °F °C ) Humidity (%) Winds ( mph kmh ) Pressure ( in mb ) Visibility ( mi km ) Precip ( " mm )
12:53 am 00:53 Clear 63 17.2 50 10 63 63 SSW 10 17 29.82 1010 10 16 0.00 0.00
1:53 am 01:53 Clear 66 18.9 47 8.3 50 50 SSW 12 19 29.80 1009 10 16 0.00 0.00
2:53 am 02:53 Clear 65 18.3 47 8.3 52 52 SSW 12 19 29.80 1009 10 16 0.00 0.00
3:53 am 03:53 Clear 64 17.8 47 8.3 54 54 SW 13 20 29.80 1009 10 16 0.00 0.00
4:53 am 04:53 Clear 63 17.2 48 8.9 58 58 SSW 12 19 29.79 1009 10 16 0.00 0.00
5:53 am 05:53 Sunny 60 15.6 50 10 70 70 SSW 7 11 29.81 1010 10 16 0.00 0.00
6:53 am 06:53 Sunny 61 16.1 51 10.6 70 70 SSW 9 15 29.82 1010 10 16 0.00 0.00
7:53 am 07:53 Sunny 65 18.3 51 10.6 61 61 SSW 7 11 29.83 1010 10 16 0.00 0.00
8:53 am 08:53 Sunny 70 21.1 53 11.7 55 55 SW 8 13 29.82 1010 10 16 0.00 0.00
9:53 am 09:53 Sunny 75 23.9 54 12.2 48 48 WSW 7 11 29.82 1010 10 16 0.00 0.00
10:53 am 10:53 Sunny 81 27.2 52 11.1 37 37 W 7 11 29.81 1009 10 16 0.00 0.00
11:53 am 11:53 Sunny 84 28.9 48 8.9 29 29 W 12 19 29.81 1009 10 16 0.00 0.00
12:53 pm 12:53 Sunny 85 29.4 48 8.9 28 28 WNW 10 17 29.80 1009 10 16 0.00 0.00
1:53 pm 13:53 Sunny 86 30 50 10 29 29 NW 10 17 29.79 1009 10 16 0.00 0.00
2:53 pm 14:53 Sunny 87 30.6 47 8.3 25 25 W 8 13 29.78 1008 10 16 0.00 0.00
3:53 pm 15:53 Sunny 87 30.6 49 9.4 27 27 VRB 6 9 29.77 1008 10 16 0.00 0.00
4:53 pm 16:53 Sunny 88 31.1 49 9.4 26 26 WNW 6 9 29.76 1008 10 16 0.00 0.00
5:53 pm 17:53 Sunny 87 30.6 49 9.4 27 27 W 7 11 29.75 1008 10 16 0.00 0.00
6:53 pm 18:53 Sunny 87 30.6 48 8.9 26 26 WNW 6 9 29.74 1007 10 16 0.00 0.00
7:53 pm 19:53 Sunny 84 28.9 55 12.8 37 37 Calm 29.75 1007 10 16 0.00 0.00
8:53 pm 20:53 Sunny 77 25 53 11.7 43 43 SW 6 9 29.75 1007 10 16 0.00 0.00
9:53 pm 21:53 Clear 74 23.3 52 11.1 46 46 SSW 7 11 29.75 1008 10 16 0.00 0.00
10:53 pm 22:53 Clear 70 21.1 53 11.7 55 55 SSW 8 13 29.76 1008 10 16 0.00 0.00
11:53 pm 23:53 Clear 69 20.6 53 11.7 57 57 SSW 9 15 29.76 1008 10 16 0.00 0.00

Powered by AerisWeather